| time (UTC) | temp C | wind direction | speed KPH | gust KPH | rain 1hr cm | rain 24hr cm | rain mn cm | humidity % | barometer mb |
| 20260906150416 | 24 | 45 | 8.0 | 14.5 | 0.00 | 0.00 | 0.00 | 82 | 1019.7 |
| 20260906145416 | 24 | 45 | 8.0 | 14.5 | 0.00 | 0.00 | 0.00 | 83 | 1019.6 |
| 20260906144416 | 23 | 68 | 4.8 | 8.0 | 0.00 | 0.00 | 0.00 | 83 | 1019.5 |
| 20260906143416 | 23 | 90 | 4.8 | 9.7 | 0.00 | 0.00 | 0.00 | 84 | 1019.3 |
| 20260906142416 | 23 | 90 | 4.8 | 9.7 | 0.00 | 0.00 | 0.00 | 83 | 1019.3 |
| 20260906141416 | 22 | 113 | 3.2 | 6.4 | 0.00 | 0.00 | 0.00 | 83 | 1019.3 |
| 20260906140416 | 22 | 90 | 4.8 | 8.0 | 0.00 | 0.00 | 0.00 | 83 | 1019.3 |
| 20260906135417 | 22 | 90 | 8.0 | 11.3 | 0.00 | 0.00 | 0.00 | 82 | 1019.3 |
| 20260906134416 | 22 | 68 | 12.9 | 19.3 | 0.00 | 0.00 | 0.00 | 82 | 1019.2 |
| 20260906133415 | 21 | 45 | 9.7 | 14.5 | 0.00 | 0.00 | 0.00 | 82 | 1019.0 |
| 20260906132416 | 21 | 68 | 1.6 | 6.4 | 0.00 | 0.00 | 0.00 | 81 | 1018.9 |
| 20260906131415 | 21 | 90 | 6.4 | 12.9 | 0.00 | 0.00 | 0.00 | 81 | 1019.1 |
| 20260906130416 | 21 | 90 | 3.2 | 6.4 | 0.00 | 0.00 | 0.00 | 81 | 1019.2 |
| 20260906125456 | 21 | 45 | 1.6 | 4.8 | 0.00 | 0.00 | 0.00 | 81 | 1019.2 |
| 20260906124415 | 21 | 23 | 8.0 | 11.3 | 0.00 | 0.00 | 0.00 | 81 | 1019.2 |
| 20260906123416 | 21 | 23 | 1.6 | 3.2 | 0.00 | 0.00 | 0.00 | 81 | 1019.2 |
| 20260906122416 | 21 | 338 | 3.2 | 4.8 | 0.00 | 0.00 | 0.00 | 81 | 1019.1 |
| 20260906121415 | 21 | 0 | 1.6 | 6.4 | 0.00 | 0.00 | 0.00 | 81 | 1019.1 |
| 20260906120456 | 21 | 0.0 | 0.0 | 0.00 | 0.00 | 0.00 | 81 | 1018.8 | |
| 20260906115435 | 21 | 0.0 | 0.0 | 0.00 | 0.00 | 0.00 | 81 | 1018.7 | |
| 20260906114415 | 21 | 0.0 | 0.0 | 0.00 | 0.00 | 0.00 | 81 | 1018.5 | |
| 20260906113415 | 21 | 0.0 | 0.0 | 0.00 | 0.00 | 0.00 | 82 | 1018.3 | |
| 20260906112415 | 21 | 0.0 | 0.0 | 0.00 | 0.00 | 0.00 | 82 | 1018.3 | |
| 20260906111435 | 21 | 0.0 | 0.0 | 0.00 | 0.00 | 0.00 | 82 | 1018.3 | |
| 20260906110415 | 21 | 0.0 | 0.0 | 0.00 | 0.00 | 0.00 | 82 | 1018.3 | |
| 20260906105415 | 21 | 0.0 | 0.0 | 0.00 | 0.00 | 0.00 | 82 | 1018.1 | |
| 20260906104415 | 21 | 0.0 | 0.0 | 0.00 | 0.00 | 0.00 | 82 | 1018.1 | |
| 20260906103415 | 21 | 0.0 | 1.6 | 0.00 | 0.00 | 0.00 | 82 | 1017.9 | |
| 20260906102415 | 21 | 0.0 | 0.0 | 0.00 | 0.00 | 0.00 | 82 | 1017.7 | |
| 20260906101417 | 21 | 0.0 | 0.0 | 0.00 | 0.00 | 0.00 | 82 | 1017.4 | |
| 20260906100417 | 21 | 90 | 4.8 | 9.7 | 0.00 | 0.00 | 0.00 | 83 | 1017.4 |
| 20260906095417 | 21 | 45 | 6.4 | 9.7 | 0.00 | 0.00 | 0.00 | 83 | 1017.4 |
| 20260906094457 | 21 | 90 | 8.0 | 12.9 | 0.00 | 0.00 | 0.00 | 83 | 1017.2 |
| 20260906093417 | 21 | 90 | 8.0 | 11.3 | 0.00 | 0.00 | 0.00 | 83 | 1017.2 |
| 20260906092415 | 21 | 68 | 6.4 | 9.7 | 0.00 | 0.00 | 0.00 | 83 | 1017.4 |
| 20260906091417 | 21 | 68 | 8.0 | 12.9 | 0.00 | 0.00 | 0.00 | 83 | 1017.4 |
| 20260906090417 | 22 | 68 | 6.4 | 9.7 | 0.00 | 0.00 | 0.00 | 83 | 1017.3 |
| 20260906085417 | 22 | 68 | 4.8 | 6.4 | 0.00 | 0.00 | 0.00 | 83 | 1017.1 |
| 20260906084417 | 22 | 90 | 6.4 | 11.3 | 0.00 | 0.00 | 0.00 | 83 | 1017.2 |
| 20260906083417 | 22 | 68 | 3.2 | 9.7 | 0.00 | 0.00 | 0.00 | 83 | 1017.2 |
| 20260906082417 | 22 | 90 | 6.4 | 11.3 | 0.00 | 0.00 | 0.00 | 83 | 1017.4 |
| 20260906081417 | 22 | 68 | 4.8 | 11.3 | 0.00 | 0.00 | 0.00 | 83 | 1017.4 |
| 20260906080417 | 22 | 68 | 12.9 | 19.3 | 0.00 | 0.00 | 0.00 | 83 | 1017.5 |
| 20260906075417 | 22 | 68 | 6.4 | 9.7 | 0.00 | 0.00 | 0.00 | 83 | 1017.4 |
| 20260906074437 | 22 | 68 | 9.7 | 12.9 | 0.00 | 0.00 | 0.00 | 83 | 1017.4 |
| 20260906073417 | 22 | 68 | 9.7 | 16.1 | 0.00 | 0.00 | 0.00 | 83 | 1017.4 |
| 20260906072417 | 23 | 68 | 3.2 | 6.4 | 0.00 | 0.00 | 0.00 | 83 | 1017.5 |
| 20260906071417 | 23 | 68 | 4.8 | 11.3 | 0.00 | 0.00 | 0.00 | 84 | 1017.4 |
| 20260906070417 | 23 | 68 | 8.0 | 12.9 | 0.00 | 0.00 | 0.00 | 84 | 1017.3 |
| 20260906065417 | 23 | 68 | 9.7 | 14.5 | 0.00 | 0.00 | 0.00 | 84 | 1017.3 |
| 20260906064417 | 23 | 68 | 6.4 | 8.0 | 0.00 | 0.00 | 0.00 | 84 | 1017.5 |
| 20260906063417 | 23 | 68 | 9.7 | 17.7 | 0.00 | 0.00 | 0.00 | 84 | 1017.6 |
| 20260906062417 | 23 | 90 | 3.2 | 4.8 | 0.00 | 0.00 | 0.00 | 84 | 1017.7 |
| 20260906061417 | 23 | 68 | 3.2 | 6.4 | 0.00 | 0.00 | 0.00 | 84 | 1017.9 |
| 20260906060417 | 23 | 23 | 1.6 | 3.2 | 0.00 | 0.00 | 0.00 | 84 | 1017.9 |
| 20260906055417 | 23 | 45 | 3.2 | 4.8 | 0.00 | 0.00 | 0.00 | 84 | 1017.8 |
| 20260906054416 | 23 | 68 | 4.8 | 4.8 | 0.00 | 0.00 | 0.00 | 84 | 1017.6 |
| 20260906053417 | 23 | 68 | 1.6 | 3.2 | 0.00 | 0.00 | 0.00 | 84 | 1017.5 |
| 20260906052418 | 23 | 45 | 3.2 | 6.4 | 0.00 | 0.00 | 0.00 | 84 | 1017.4 |
| 20260906051416 | 23 | 68 | 3.2 | 8.0 | 0.00 | 0.00 | 0.00 | 84 | 1017.4 |
| 20260906050417 | 23 | 68 | 4.8 | 6.4 | 0.00 | 0.00 | 0.00 | 84 | 1017.2 |
| 20260906045416 | 23 | 45 | 4.8 | 6.4 | 0.00 | 0.00 | 0.00 | 84 | 1017.1 |
| 20260906044416 | 24 | 68 | 1.6 | 8.0 | 0.00 | 0.00 | 0.00 | 84 | 1016.9 |
| 20260906043416 | 24 | 68 | 4.8 | 6.4 | 0.00 | 0.00 | 0.00 | 84 | 1016.8 |
| 20260906042456 | 24 | 45 | 4.8 | 6.4 | 0.00 | 0.00 | 0.00 | 84 | 1016.7 |
| 20260906041416 | 24 | 68 | 4.8 | 4.8 | 0.00 | 0.00 | 0.00 | 84 | 1016.6 |
| 20260906040416 | 24 | 68 | 8.0 | 12.9 | 0.00 | 0.00 | 0.00 | 84 | 1016.5 |
| 20260906035436 | 25 | 68 | 8.0 | 11.3 | 0.00 | 0.00 | 0.00 | 84 | 1016.4 |
| 20260906034416 | 25 | 45 | 6.4 | 9.7 | 0.00 | 0.00 | 0.00 | 84 | 1016.2 |
| 20260906033416 | 25 | 68 | 6.4 | 11.3 | 0.00 | 0.00 | 0.00 | 83 | 1016.3 |
| 20260906032416 | 25 | 68 | 9.7 | 14.5 | 0.00 | 0.00 | 0.00 | 83 | 1016.3 |
| 20260906031416 | 25 | 68 | 4.8 | 6.4 | 0.00 | 0.00 | 0.00 | 83 | 1016.1 |
| 20260906030416 | 26 | 45 | 6.4 | 11.3 | 0.00 | 0.00 | 0.00 | 83 | 1016.1 |
| 20260906025416 | 26 | 68 | 4.8 | 6.4 | 0.00 | 0.00 | 0.00 | 83 | 1016.1 |
| 20260906024416 | 26 | 68 | 11.3 | 16.1 | 0.00 | 0.00 | 0.00 | 83 | 1016.1 |
| 20260906023416 | 26 | 90 | 4.8 | 8.0 | 0.00 | 0.00 | 0.00 | 83 | 1016.0 |
| 20260906022416 | 27 | 90 | 4.8 | 8.0 | 0.00 | 0.00 | 0.00 | 82 | 1015.8 |
| 20260906021417 | 27 | 68 | 6.4 | 11.3 | 0.00 | 0.00 | 0.00 | 82 | 1015.6 |
| 20260906020416 | 27 | 45 | 8.0 | 12.9 | 0.00 | 0.00 | 0.00 | 82 | 1015.5 |
| 20260906015416 | 27 | 45 | 6.4 | 11.3 | 0.00 | 0.00 | 0.00 | 81 | 1015.3 |
| 20260906014416 | 28 | 68 | 3.2 | 4.8 | 0.00 | 0.00 | 0.00 | 81 | 1015.3 |
| 20260906013436 | 28 | 45 | 6.4 | 9.7 | 0.00 | 0.00 | 0.00 | 80 | 1015.1 |
| 20260906012416 | 28 | 45 | 8.0 | 11.3 | 0.00 | 0.00 | 0.00 | 80 | 1014.8 |
| 20260906011416 | 28 | 68 | 4.8 | 9.7 | 0.00 | 0.00 | 0.00 | 79 | 1014.7 |
| 20260906010416 | 29 | 45 | 4.8 | 8.0 | 0.00 | 0.00 | 0.00 | 78 | 1014.6 |
| 20260906005416 | 30 | 23 | 6.4 | 14.5 | 0.00 | 0.00 | 0.00 | 77 | 1014.6 |
| 20260906004416 | 30 | 23 | 4.8 | 11.3 | 0.00 | 0.00 | 0.00 | 76 | 1014.6 |
| 20260906003416 | 30 | 23 | 3.2 | 6.4 | 0.00 | 0.00 | 0.00 | 75 | 1014.5 |
| 20260906002416 | 31 | 45 | 3.2 | 6.4 | 0.00 | 0.00 | 0.00 | 74 | 1014.5 |
| 20260906001416 | 31 | 23 | 1.6 | 3.2 | 0.00 | 0.00 | 0.00 | 74 | 1014.6 |
| 20260906000418 | 31 | 0 | 1.6 | 3.2 | 0.00 | 0.00 | 0.00 | 74 | 1014.6 |
| 20260905235416 | 31 | 0 | 3.2 | 4.8 | 0.00 | 0.00 | 0.00 | 73 | 1014.5 |
| 20260905234416 | 31 | 338 | 3.2 | 4.8 | 0.00 | 0.00 | 0.00 | 72 | 1014.4 |
| 20260905233416 | 32 | 45 | 3.2 | 6.4 | 0.00 | 0.00 | 0.00 | 72 | 1014.3 |
| 20260905232415 | 32 | 45 | 1.6 | 3.2 | 0.00 | 0.00 | 0.00 | 73 | 1014.4 |
| 20260905231416 | 32 | 45 | 4.8 | 8.0 | 0.00 | 0.00 | 0.00 | 71 | 1014.3 |
| 20260905230416 | 32 | 45 | 6.4 | 9.7 | 0.00 | 0.00 | 0.00 | 69 | 1014.3 |
| 20260905225416 | 33 | 68 | 8.0 | 11.3 | 0.00 | 0.00 | 0.00 | 67 | 1014.3 |
| 20260905224435 | 33 | 68 | 3.2 | 6.4 | 0.00 | 0.00 | 0.00 | 65 | 1014.3 |
| 20260905223415 | 33 | 68 | 3.2 | 4.8 | 0.00 | 0.00 | 0.00 | 65 | 1014.2 |
| 20260905222435 | 33 | 68 | 6.4 | 9.7 | 0.00 | 0.00 | 0.00 | 66 | 1014.2 |
| 20260905221416 | 33 | 45 | 8.0 | 14.5 | 0.00 | 0.00 | 0.00 | 66 | 1014.3 |
| 20260905220416 | 33 | 0 | 6.4 | 8.0 | 0.00 | 0.00 | 0.00 | 67 | 1014.4 |
| 20260905215415 | 33 | 0 | 4.8 | 6.4 | 0.00 | 0.00 | 0.00 | 67 | 1014.4 |
| 20260905214415 | 32 | 23 | 6.4 | 8.0 | 0.00 | 0.00 | 0.00 | 70 | 1014.3 |
| 20260905213415 | 32 | 68 | 4.8 | 8.0 | 0.00 | 0.00 | 0.00 | 70 | 1014.2 |
| 20260905212415 | 32 | 68 | 4.8 | 8.0 | 0.00 | 0.00 | 0.00 | 70 | 1014.3 |
| 20260905211415 | 33 | 23 | 3.2 | 4.8 | 0.00 | 0.00 | 0.00 | 69 | 1014.5 |
| 20260905210455 | 32 | 68 | 4.8 | 8.0 | 0.00 | 0.00 | 0.00 | 70 | 1014.4 |
| 20260905205415 | 33 | 23 | 4.8 | 6.4 | 0.00 | 0.00 | 0.00 | 68 | 1014.6 |
| 20260905204435 | 33 | 68 | 1.6 | 4.8 | 0.00 | 0.00 | 0.00 | 67 | 1014.6 |
| 20260905203415 | 33 | 45 | 8.0 | 8.0 | 0.00 | 0.00 | 0.00 | 66 | 1014.6 |
| 20260905202418 | 33 | 68 | 4.8 | 6.4 | 0.00 | 0.00 | 0.00 | 65 | 1014.7 |
| 20260905201417 | 33 | 315 | 3.2 | 4.8 | 0.00 | 0.00 | 0.00 | 63 | 1015.0 |
| 20260905200437 | 33 | 293 | 3.2 | 4.8 | 0.00 | 0.00 | 0.00 | 61 | 1014.9 |
| 20260905195437 | 33 | 0 | 4.8 | 6.4 | 0.00 | 0.00 | 0.00 | 62 | 1014.9 |
| 20260905194419 | 34 | 315 | 4.8 | 6.4 | 0.00 | 0.00 | 0.00 | 61 | 1015.0 |
| 20260905193417 | 34 | 293 | 6.4 | 9.7 | 0.00 | 0.00 | 0.00 | 62 | 1015.2 |
| 20260905192437 | 34 | 23 | 11.3 | 14.5 | 0.00 | 0.00 | 0.00 | 60 | 1015.2 |
| 20260905191417 | 33 | 293 | 3.2 | 6.4 | 0.00 | 0.00 | 0.00 | 61 | 1015.1 |
| 20260905190437 | 33 | 293 | 8.0 | 12.9 | 0.00 | 0.00 | 0.00 | 61 | 1015.1 |
| 20260905185417 | 33 | 293 | 3.2 | 4.8 | 0.00 | 0.00 | 0.00 | 63 | 1015.1 |
| 20260905184417 | 33 | 293 | 4.8 | 6.4 | 0.00 | 0.00 | 0.00 | 63 | 1015.3 |
| 20260905183417 | 33 | 293 | 4.8 | 6.4 | 0.00 | 0.00 | 0.00 | 62 | 1015.3 |
| 20260905182417 | 33 | 293 | 9.7 | 11.3 | 0.00 | 0.00 | 0.00 | 62 | 1015.3 |
| 20260905181417 | 33 | 293 | 6.4 | 9.7 | 0.00 | 0.00 | 0.00 | 61 | 1015.5 |
| 20260905180418 | 33 | 45 | 4.8 | 6.4 | 0.00 | 0.00 | 0.00 | 62 | 1015.5 |
| 20260905175417 | 33 | 315 | 4.8 | 6.4 | 0.00 | 0.00 | 0.00 | 60 | 1015.5 |
| 20260905174417 | 33 | 0 | 4.8 | 6.4 | 0.00 | 0.00 | 0.00 | 62 | 1015.7 |
| 20260905173417 | 33 | 293 | 8.0 | 11.3 | 0.00 | 0.00 | 0.00 | 62 | 1015.8 |
| 20260905172417 | 33 | 23 | 4.8 | 8.0 | 0.00 | 0.00 | 0.00 | 60 | 1015.8 |
| 20260905171417 | 33 | 315 | 8.0 | 14.5 | 0.00 | 0.00 | 0.00 | 60 | 1015.8 |
| 20260905170417 | 34 | 293 | 4.8 | 8.0 | 0.00 | 0.00 | 0.00 | 60 | 1015.9 |
| 20260905165417 | 34 | 293 | 11.3 | 14.5 | 0.00 | 0.00 | 0.00 | 59 | 1015.9 |
| 20260905164416 | 33 | 270 | 3.2 | 6.4 | 0.00 | 0.00 | 0.00 | 60 | 1015.9 |
| 20260905163416 | 33 | 315 | 4.8 | 6.4 | 0.00 | 0.00 | 0.00 | 62 | 1015.8 |
| 20260905162417 | 32 | 338 | 6.4 | 9.7 | 0.00 | 0.00 | 0.00 | 62 | 1015.8 |
| 20260905161416 | 32 | 293 | 4.8 | 6.4 | 0.00 | 0.00 | 0.00 | 66 | 1015.8 |
| 20260905160417 | 32 | 293 | 6.4 | 8.0 | 0.00 | 0.00 | 0.00 | 67 | 1015.7 |
| 20260905155417 | 32 | 315 | 3.2 | 6.4 | 0.00 | 0.00 | 0.00 | 66 | 1015.8 |
| 20260905154417 | 32 | 315 | 4.8 | 8.0 | 0.00 | 0.00 | 0.00 | 66 | 1015.6 |
| 20260905153416 | 32 | 293 | 3.2 | 4.8 | 0.00 | 0.00 | 0.00 | 66 | 1015.6 |
| 20260905152436 | 32 | 293 | 6.4 | 9.7 | 0.00 | 0.00 | 0.00 | 67 | 1015.7 |
| 20260905151416 | 31 | 293 | 4.8 | 6.4 | 0.00 | 0.00 | 0.00 | 71 | 1015.6 |